Regional Weather Roundup
Issued by NWS New Orleans/Baton Rouge, LA

Home | Current Version | Previous Version | Text Only | Print | Product List | Glossary On
Versions: 1 2 3 4 5 6 7 8 9 10 11 12 13 14 15 16 17 18 19 20 21 22 23 24 25 26 27 28 29 30 31 32 33 34 35 36 37 38 39 40 41 42 43 44 45 46 47 48 49 50
967
ASUS44 KLIX 022305
RWRLIX
NEW ORLEANS REGIONAL WEATHER ROUNDUP
NATIONAL WEATHER SERVICE NEW ORLEANS LA
500 PM CST MON MAR 02 2015

NOTE: "FAIR" INDICATES FEW OR NO CLOUDS BELOW 12,000 FEET WITH NO
      SIGNIFICANT WEATHER AND/OR OBSTRUCTIONS TO VISIBILITY.
      SKY/WX - SKY CONDITION AND SIGNIFICANT WEATHER.
      TMP - AIR TEMPERATURE.     DP    - DEWPOINT TEMPERATURE.
      RH  - RELATIVE HUMIDITY.   PRES  - PRESSURE.
      HI  - HEAT INDEX.          WCI   - WIND CHILL INDEX.

*  THESE STATIONS ARE NOT NWS OR FAA STATIONS AND ARE NOT UNDER
   NWS QUALITY CONTROL.

LAZ038-040-048-061>063-065>067-069-030000-
SOUTHEAST LOUISIANA

CITY           SKY/WX    TMP DP  RH WIND       PRES   REMARKS
N.O. AUDUBON     N/A     73  73 100 MISG        N/A
N.O. INTL ARPT PTSUNNY   72  66  81 NE8       30.17F
N.O. LAKEFRONT PTSUNNY   67  62  84 E10       30.19F
SLIDELL        PTSUNNY   73  68  84 E3        30.19S
BATON ROUGE    CLOUDY    63  62  97 CALM      30.19F
BOOTHVILLE     PTSUNNY   76  69  79 S8        30.20S
BELLE CHASSE   CLOUDY    71  66  84 NE9       30.18S
BOGALUSA*        N/A     66  63  88 CALM      30.22S
GALLIANO*      PTCLDY    78  68  72 MISG      30.19S
NEW ROADS*     RAIN      52  51  97 NW7       30.22S
GONZALES*      MOCLDY    73  69  86 N10       30.17S HAZE
HAMMOND*       NOT AVBL
HOUMA*         MOSUNNY   77  70  78 S8        30.17S
PORT FOURCHON* CLEAR     73  70  88 S7        30.22S

$$

MSZ070-080>082-030000-
SOUTHERN MISSISSIPPI

CITY           SKY/WX    TMP DP  RH WIND       PRES   REMARKS
MCCOMB         CLOUDY    63  62  97 CALM      30.20F
GULFPORT       FOG       63  63 100 E6        30.20F VSB 1/4
BILOXI         CLOUDY    65  65 100 E2        30.20S FOG
PASCAGOULA     CLOUDY    65  64  97 SE7       30.21S FOG
STENNIS ARPT*  CLOUDY    66  64  94 CALM      30.20F FOG

$$

COASTAL OBSERVATIONS
LAKE AND NEARSHORE STATIONS

STATION/POSITION TIME  TEMP    WIND        PRES    WAVE
                       AIR SEA DIR/SP/G            HT/PER
                 (UTC) (F)     (DEG/KT/KT) (MB)    (FT/S)
PASCAGOULA       2300   63     100/  6/ 10 1022.6
WAVELAND YACHT   2300   62 55  140/  2/  2 1022.5
GRAND ISLE       2300   71 60  150/  4/  6 1022.9
SOUTHWEST PASS   2300   75 48  130/  6/  7 1022.7
NEW CANAL        2300   62      70/ 11/ 11 1022.3
SHELL BEACH      2300   60 57   30/ 12/ 13 1022.3

OFFSHORE STATIONS

STATION/POSITION TIME  TEMP    WIND        PRES    WAVE
                       AIR SEA DIR/SP/G            HT/PER
                 (UTC) (F)     (DEG/KT/KT) (MB)    (FT/S)
64 S DAUPHIN ISL 2240   71 72  140/  8/ 10 1023.2    3/ 6

$$




USA.gov is the U.S. government's official web portal to all federal, state and local government web resources and services.